FW2175 Weather Reports


time (UTC)temp
C
wind
direction
speed
KPH
gust
KPH
rain 1hr
cm
rain 24hr
cm
rain mn
cm
humidity
%
barometer
mb
20260504120109 11 0 0.0 3.2 0.00 0.00 0.00 60 1009.9
20260504081538 12 0 0.0 3.2 0.00 0.00 0.00 59 1009.9
20260504050110 15 99 0.0 3.2 0.00 0.00 0.00 59 1009.9
20260504044541 15 0 0.0 1.6 0.00 0.00 0.00 60 1009.9
20260504043041 15 0 0.0 3.2 0.00 0.00 0.00 60 1009.8
20260504041541 16 0 0.0 1.6 0.00 0.00 0.00 60 1009.8
20260504040048 16 0 0.0 1.6 0.00 0.00 0.00 59 1009.7
20260504034549 17 0 0.0 3.2 0.00 0.00 0.00 57 1009.6
20260504033045 18 0 0.0 3.2 0.00 0.00 0.00 52 1009.6
20260504031601 20 0 0.0 1.6 0.00 0.00 0.00 49 1009.5
20260504030043 20 0 0.0 1.6 0.00 0.00 0.00 47 1009.5
20260504024544 20 0 0.0 1.6 0.00 0.00 0.00 48 1009.6
20260504023045 21 182 0.0 1.6 0.00 0.00 0.00 46 1009.6
20260504021543 21 182 0.0 3.2 0.00 0.00 0.00 46 1009.7
20260504020042 22 183 0.0 4.8 0.00 0.00 0.00 45 1009.9
20260504014543 22 157 1.6 4.8 0.00 0.00 0.00 44 1010.0
20260504013037 23 0 1.6 4.8 0.00 0.00 0.00 42 1010.0
20260504011537 23 181 1.6 6.4 0.00 0.00 0.00 44 1010.1
20260504010046 23 184 1.6 4.8 0.00 0.00 0.00 42 1010.3
20260504004543 23 184 3.2 6.4 0.00 0.00 0.00 42 1010.5
20260504003046 25 182 1.6 6.4 0.00 0.00 0.00 38 1010.6
20260504001547 25 145 1.6 6.4 0.00 0.00 0.00 35 1010.6
20260504000037 25 193 3.2 6.4 0.00 0.00 0.00 37 1010.8
20260503234544 25 173 1.6 8.0 0.00 0.00 0.00 38 1010.9
20260503233043 26 233 4.8 11.3 0.00 0.00 0.00 38 1011.0
20260503231548 26 265 3.2 9.7 0.00 0.00 0.00 38 1011.0
20260503230041 25 244 3.2 6.4 0.00 0.00 0.00 38 1011.2
20260503224549 25 189 1.6 8.0 0.00 0.00 0.00 35 1011.4
20260503223044 25 173 3.2 6.4 0.00 0.00 0.00 41 1011.8
20260503221544 24 173 3.2 6.4 0.00 0.00 0.00 45 1011.9
20260503220043 24 172 1.6 6.4 0.00 0.00 0.00 41 1012.0
20260503214548 24 157 3.2 9.7 0.00 0.00 0.00 43 1012.3
20260503213103 24 181 1.6 8.0 0.00 0.00 0.00 42 1012.5
20260503211613 24 158 3.2 6.4 0.00 0.00 0.00 43 1012.5
20260503210044 23 252 3.2 12.9 0.00 0.00 0.00 42 1012.7
20260503204558 23 265 3.2 14.5 0.00 0.00 0.00 46 1012.8
20260503203041 23 268 6.4 12.9 0.00 0.00 0.00 45 1013.0
20260503201541 23 241 6.4 12.9 0.00 0.00 0.00 43 1013.1
20260503200047 23 191 3.2 8.0 0.00 0.00 0.00 46 1013.2
20260503194543 22 195 1.6 9.7 0.00 0.00 0.00 45 1013.4
20260503193044 22 148 3.2 8.0 0.00 0.00 0.00 50 1013.6
20260503191556 22 169 3.2 8.0 0.00 0.00 0.00 48 1013.7
20260503190043 23 167 3.2 8.0 0.00 0.00 0.00 47 1013.7
20260503184604 23 212 1.6 4.8 0.00 0.00 0.00 45 1013.8
20260503183047 22 230 3.2 9.7 0.00 0.00 0.00 41 1014.0
20260503181541 22 178 1.6 6.4 0.00 0.00 0.00 45 1014.2
20260503180041 21 0 1.6 8.0 0.00 0.00 0.00 40 1014.4
20260503174600 20 0 0.0 8.0 0.00 0.00 0.00 44 1014.5
20260503173036 20 246 1.6 4.8 0.00 0.00 0.00 46 1014.6
20260503171541 19 0 0.0 6.4 0.00 0.00 0.00 50 1014.6